Date String (YYYY-MM-DD hh:mm:ss) UTC,Instrument flags,absolute air pressure of the measurement (hPa),sample flow rate (lpm),inlet stack bypass flow (lpm),air temperature of the measurement (°C),ambient temperature measured by the external sensor (°C),aerosol sample conditioner tube jacket temperature (°C),OPC LED temperature (°C),internal box temperature (°C),relative humidity of the measurement (%),span deviation,mass concentration of particles derived from Lorenz-Mie calculation of OPC scattering (μg/m³),mass concentration of particles derived from Lorenz-Mie calculation of OPC scattering (μg/m³),mass concentration of particles derived from Lorenz-Mie calculation of OPC scattering (μg/m³)
DateTimeUTC,F1_M11,P_M11,Q1_M11,Q2_M11,T1_M11,T2_M11,T3_M11,T4_M11,T5_M11,U1_M11,ZSPAN_M11,X0_M11,X2_M11,X1_M11
2024-01-20 13:00:00,SystemResetWarning,0829.3,5.00,000.00,018.8,017.9,000.0,027.2,020.0,11.9,0003.0,0015.97,0008.54,0007.92
2024-01-20 13:01:00,SystemResetWarning,0829.3,5.00,000.00,018.8,017.9,000.0,027.2,020.0,11.9,0002.7,0016.28,0008.53,0007.91
2024-01-20 13:02:00,SystemResetWarning,0829.2,5.00,000.00,018.7,017.9,000.0,027.2,020.0,11.8,0002.8,0015.44,0008.49,0007.87
2024-01-20 13:03:00,SystemResetWarning,0829.2,4.99,000.00,018.7,017.9,000.0,027.2,020.0,11.7,0002.2,0015.07,0008.41,0007.81
2024-01-20 13:04:00,SystemResetWarning,0829.3,5.00,000.00,018.7,017.8,000.0,027.2,020.0,11.7,0002.1,0014.56,0008.26,0007.71
2024-01-20 13:05:00,SystemResetWarning,0829.3,5.00,000.00,018.7,017.8,000.0,027.2,020.0,11.8,0002.5,0015.18,0008.19,0007.63
2024-01-20 13:06:00,SystemResetWarning,0829.3,5.00,000.00,018.7,017.8,000.0,027.2,020.0,11.8,0002.8,0015.21,0008.19,0007.61
2024-01-20 13:07:00,SystemResetWarning,0829.3,5.01,000.00,018.7,017.8,000.0,027.2,020.0,11.8,0002.9,0014.55,0008.19,0007.60
2024-01-20 13:08:00,SystemResetWarning,0829.3,5.00,000.00,018.7,017.8,000.0,027.2,020.1,11.9,0003.2,0014.59,0008.19,0007.59
2024-01-20 13:09:00,SystemResetWarning,0829.3,5.01,000.00,018.8,018.3,000.0,027.2,020.6,11.9,0002.8,0014.92,0008.18,0007.57
2024-01-20 13:10:00,SystemResetWarning,0829.3,4.99,000.00,019.0,019.0,000.0,027.2,020.9,11.7,0002.1,0014.69,0008.15,0007.53
2024-01-20 13:11:00,SystemResetWarning,0829.3,4.99,000.00,019.1,019.0,000.0,027.2,020.7,11.6,0002.1,0013.86,0008.06,0007.46
2024-01-20 13:12:00,SystemResetWarning,0829.3,4.99,000.00,019.1,018.9,000.0,027.2,020.4,11.6,0002.1,0013.43,0008.10,0007.48
2024-01-20 13:13:00,SystemResetWarning,0829.2,5.01,000.00,019.0,018.8,000.0,027.2,020.3,11.6,0002.7,0013.72,0008.19,0007.56
2024-01-20 13:14:00,SystemResetWarning,0829.2,5.00,000.00,019.0,018.7,000.0,027.2,020.2,11.6,0003.3,0014.48,0008.26,0007.62
2024-01-20 13:15:00,SystemResetWarning,0829.2,5.01,000.00,019.0,018.6,000.0,027.2,020.1,11.6,0003.5,0014.68,0008.32,0007.67
2024-01-20 13:16:00,SystemResetWarning,0829.1,5.00,000.00,018.9,018.5,000.0,027.3,020.0,11.5,0003.3,0013.91,0008.37,0007.74
2024-01-20 13:17:00,SystemResetWarning,0829.1,5.00,000.00,018.9,018.3,000.0,027.3,020.0,11.4,0003.3,0014.09,0008.38,0007.77
2024-01-20 13:18:00,SystemResetWarning,0829.1,5.00,000.00,018.9,018.2,000.0,027.3,020.0,11.4,0003.5,0014.04,0008.39,0007.82
2024-01-20 13:19:00,SystemResetWarning,0829.1,5.00,000.00,018.9,018.1,000.0,027.3,020.0,11.6,0002.9,0014.03,0008.41,0007.85
2024-01-20 13:20:00,SystemResetWarning,0829.1,5.01,000.00,018.9,018.0,000.0,027.3,020.0,11.6,0003.0,0013.68,0008.40,0007.84
2024-01-20 13:21:00,SystemResetWarning,0829.0,5.01,000.00,018.9,017.9,000.0,027.3,020.0,11.8,0003.5,0013.58,0008.43,0007.85
2024-01-20 13:22:00,SystemResetWarning,0829.1,5.00,000.00,018.8,017.9,000.0,027.3,020.0,11.8,0003.4,0013.74,0008.50,0007.88
2024-01-20 13:23:00,SystemResetWarning,0829.1,4.99,000.00,018.8,017.9,000.0,027.3,020.0,11.7,0003.6,0013.77,0008.51,0007.91
2024-01-20 13:24:00,SystemResetWarning,0829.1,5.00,000.00,018.8,017.9,000.0,027.3,020.0,11.8,0003.6,0013.50,0008.49,0007.92
2024-01-20 13:25:00,SystemResetWarning,0829.1,5.00,000.00,018.8,017.9,000.0,027.2,020.0,11.8,0003.8,0012.81,0008.46,0007.92
2024-01-20 13:26:00,SystemResetWarning,0829.0,5.01,000.00,018.8,017.9,000.0,027.2,020.0,11.9,0004.1,0012.96,0008.48,0007.93
2024-01-20 13:27:00,SystemResetWarning,0829.0,5.01,000.00,018.8,017.9,000.0,027.2,020.0,12.0,0002.1,0013.74,0008.49,0007.92
2024-01-20 13:28:00,SystemResetWarning,0829.0,5.00,000.00,018.8,017.9,000.0,027.2,020.0,12.0,0000.0,0013.44,0008.47,0007.89
2024-01-20 13:29:00,SystemResetWarning,0829.0,4.99,000.00,018.8,017.9,000.0,027.2,020.0,12.1,0000.0,0013.33,0008.41,0007.82
2024-01-20 13:30:00,SystemResetWarning,0828.9,4.99,000.00,018.7,017.9,000.0,027.2,020.0,12.1,0000.0,0013.25,0008.32,0007.72
2024-01-20 13:31:00,SystemResetWarning,0829.0,5.00,000.00,018.7,017.9,000.0,027.2,020.0,12.2,0000.0,0013.85,0008.24,0007.66
2024-01-20 13:32:00,SystemResetWarning,0829.0,5.00,000.00,018.7,017.9,000.0,027.2,020.0,12.2,0000.0,0014.24,0008.17,0007.60
2024-01-20 13:33:00,SystemResetWarning,0829.0,5.00,000.00,018.7,017.9,000.0,027.2,020.0,12.2,0000.0,0014.10,0008.10,0007.55
2024-01-20 13:34:00,SystemResetWarning,0829.0,5.00,000.00,018.7,017.8,000.0,027.2,020.0,12.2,0000.0,0013.99,0008.05,0007.52
2024-01-20 13:35:00,SystemResetWarning,0829.0,5.00,000.00,018.7,017.8,000.0,027.2,020.0,12.1,0000.0,0014.00,0008.03,0007.47
2024-01-20 13:36:00,SystemResetWarning,0829.0,5.00,000.00,018.7,017.8,000.0,027.2,020.0,12.1,0000.0,0014.01,0008.03,0007.44
2024-01-20 13:37:00,SystemResetWarning,0829.0,5.00,000.00,018.7,017.8,000.0,027.2,020.0,12.1,0000.0,0013.75,0007.95,0007.38
2024-01-20 13:38:00,SystemResetWarning,0829.0,5.01,000.00,018.8,018.1,000.0,027.2,020.4,12.0,0000.0,0012.83,0007.83,0007.27
2024-01-20 13:39:00,SystemResetWarning,0829.1,5.00,000.00,018.9,018.9,000.0,027.2,020.9,11.9,0000.0,0012.81,0007.74,0007.17
2024-01-20 13:40:00,SystemResetWarning,0829.1,4.99,000.00,019.0,019.2,000.0,027.2,020.8,11.9,0000.0,0013.25,0007.77,0007.17
2024-01-20 13:41:00,SystemResetWarning,0829.0,4.99,000.00,019.1,019.0,000.0,027.2,020.5,11.9,0000.0,0013.68,0007.77,0007.20
2024-01-20 13:42:00,SystemResetWarning,0829.0,5.01,000.00,019.0,018.9,000.0,027.2,020.3,11.8,0000.0,0013.86,0007.77,0007.21
2024-01-20 13:43:00,SystemResetWarning,0829.0,5.01,000.00,019.0,018.8,000.0,027.2,020.3,11.7,0000.0,0013.61,0007.76,0007.22
2024-01-20 13:44:00,SystemResetWarning,0828.9,5.00,000.00,019.0,018.7,000.0,027.2,020.2,11.7,0000.0,0014.27,0007.78,0007.23
2024-01-20 13:45:00,SystemResetWarning,0828.9,5.01,000.00,019.0,018.6,000.0,027.2,020.2,11.7,0000.0,0014.42,0007.75,0007.21
2024-01-20 13:46:00,SystemResetWarning,0828.9,5.00,000.00,018.9,018.5,000.0,027.2,020.1,11.9,0000.0,0014.75,0007.73,0007.21
2024-01-20 13:47:00,SystemResetWarning,0828.9,4.99,000.00,018.9,018.4,000.0,027.2,020.1,12.0,0000.0,0015.00,0007.74,0007.22
2024-01-20 13:48:00,SystemResetWarning,0828.9,4.99,000.00,018.9,018.4,000.0,027.2,020.1,12.0,0000.0,0015.33,0007.76,0007.24
2024-01-20 13:49:00,SystemResetWarning,0828.9,5.01,000.00,018.9,018.3,000.0,027.2,020.1,12.1,0000.0,0015.67,0007.85,0007.33
2024-01-20 13:50:00,SystemResetWarning,0828.9,5.01,000.00,018.8,018.3,000.0,027.2,020.0,12.0,0000.0,0015.61,0007.92,0007.41
2024-01-20 13:51:00,SystemResetWarning,0829.0,4.99,000.00,018.8,018.2,000.0,027.2,020.0,12.0,0000.0,0015.75,0007.97,0007.44
2024-01-20 13:52:00,SystemResetWarning,0829.0,4.99,000.00,018.8,018.2,000.0,027.2,020.0,12.0,0000.0,0015.43,0008.03,0007.45
2024-01-20 13:53:00,SystemResetWarning,0828.9,5.00,000.00,018.8,018.2,000.0,027.2,020.0,11.9,0000.0,0014.57,0008.03,0007.46
2024-01-20 13:54:00,SystemResetWarning,0828.9,5.00,000.00,018.8,018.1,000.0,027.2,020.0,11.9,0000.0,0014.20,0008.01,0007.47
2024-01-20 13:55:00,SystemResetWarning,0828.9,5.00,000.00,018.8,018.1,000.0,027.2,020.0,11.9,0000.0,0014.08,0008.02,0007.49
2024-01-20 13:56:00,SystemResetWarning,0829.0,5.00,000.00,018.8,018.1,000.0,027.2,020.0,12.0,0000.0,0013.90,0008.05,0007.51
2024-01-20 13:57:00,SystemResetWarning,0828.9,5.01,000.00,018.8,018.1,000.0,027.2,020.0,12.0,0000.0,0013.69,0008.09,0007.52
2024-01-20 13:58:00,SystemResetWarning,0828.9,5.00,000.00,018.8,018.0,000.0,027.2,020.0,12.1,0000.0,0013.86,0008.08,0007.53
2024-01-20 13:59:00,SystemResetWarning,0828.9,5.01,000.00,018.8,018.0,000.0,027.2,020.0,12.3,0000.0,0013.57,0008.08,0007.54
